Powrót do katalogu

STARLINK-30517

AktywnyŁącznośćVLEO
NORAD 57995·PAYLOAD·🇺🇸 United States

Wystrzelony Oct 5, 2023 z Cape Canaveral Space Force Station

Loading…

Następne Przeloty (najbliższe 24 godziny)

TLE

ŚwieżeSource: CelesTrak SupGP

Epoka: Sep 15, 2026, 03:09 UTC

1 57995C 23153E   26258.13173611 -.00061165  00000+0 -22148-2 0  2582
2 57995  43.0003  77.4340 0001700 266.0187 183.2439 15.27616303    15

Śledź STARLINK-30517 w czasie rzeczywistym z AllMySat

Download on the App Store